カタログに戻る

STARLINK-34966

運用中通信SSO
NORAD 65257·PAYLOAD·🇺🇸 United States

打ち上げ Aug 18, 2025 から Vandenberg Space Force Base

Loading…

次のパス (今後24時間)

TLE

最新Source: CelesTrak SupGP

元期: Sep 14, 2026, 23:15 UTC

1 65257C 25179Y   26257.96923611  .00024750  00000+0  76843-3 0  2573
2 65257  97.2835 297.3503 0001288  86.9902 267.4803 15.33421948    14

AllMySatでSTARLINK-34966をリアルタイム追跡

Download on the App Store